+ View the NASA Portal
+ Center for Near-Earth Object Studies
IMPORTANT:
The SSD Announcement email list is now available. Major changes are coming in the near future, including possible hostname and/or URL changes. To be notified of such changes, subscribe to this email list.
Please visit
this page
for more details.
Don't show this message again
JPL Small-Body Database Browser
Search:
[
help
]
226605 (2004 CD95)
Classification:
Main-belt Asteroid
SPK-ID:
2226605
[
Ephemeris
|
Orbit Diagram
|
Orbital Elements
|
Mission Design
|
Physical Parameters
|
Discovery Circumstances
|
Close-Approach Data
]
[ show orbit diagram ]
Orbital Elements at Epoch 2458600.5 (2019-Apr-27.0) TDB
Reference:
JPL 18
(heliocentric ecliptic J2000)
Element
Value
Uncertainty (1-sigma)
Units
e
.1963865118659839
4.0654e-08
a
2.290121526385718
1.4659e-08
au
q
1.840372548069624
9.2062e-08
au
i
5.255444553710126
5.0755e-06
deg
node
301.7430959030204
4.7232e-05
deg
peri
297.9651521421727
4.9284e-05
deg
M
72.32502132536891
1.393e-05
deg
t
p
2458346.184816424741
(2018-Aug-15.68481642)
4.837e-05
TDB
period
1265.861584405503
3.47
1.2154e-05
3.328e-08
d
yr
n
.2843912829293021
2.7306e-09
deg/d
Q
2.739870504701811
1.7538e-08
au
Orbit Determination Parameters
# obs. used (total)
567
data-arc span
21580 days (59.08 yr)
first obs. used
1960-09-28
last obs. used
2019-10-29
planetary ephem.
DE431
SB-pert. ephem.
SB431-N16
condition code
0
norm. resid. RMS
.55616
source
ORB
producer
Otto Matic
solution date
2019-Nov-08 00:54:42
Additional Information
Earth MOID
= .834853 au
Jupiter MOID
= 2.30329 au
T_jup
= 3.568
[ show covariance matrix ]
[
Ephemeris
|
Orbit Diagram
|
Orbital Elements
|
Mission Design
|
Physical Parameters
|
Discovery Circumstances
|
Close-Approach Data
]
Physical Parameter Table
Parameter
Symbol
Value
Units
Sigma
Reference
Notes
absolute magnitude
H
15.9
n/a
MPO348608
226605 (2004 CD95)
Discovered 2004-Feb-13 by NEAT at Palomar
Reference:
20091202/Numbers.arc
Last Updated:
2009-12-04
[ show close-approach data ]
[
Ephemeris
|
Orbit Diagram
|
Orbital Elements
|
Mission Design
|
Physical Parameters
|
Discovery Circumstances
|
Close-Approach Data
]
2019-Dec-09 11:08 UT
(server date/time)
Site Manager:
Ryan S. Park
Webmaster
:
Alan B. Chamberlin